Time,TemperatureF,DewpointF,PressureIn,WindDirection,WindDirectionDegrees,WindSpeedMPH,WindSpeedGustMPH,Humidity,HourlyPrecipIn,Conditions,Clouds,dailyrainin,SoftwareType,DateUTC
2013-02-02 00:00:00,33.0,4.0,-100.00,ENE,59,3.0,8.0,29,-99.99,,,-99.99,,2013-02-02 08:00:00,
2013-02-02 01:00:00,34.0,1.0,-100.00,NW,311,1.0,7.0,24,-99.99,,,-99.99,,2013-02-02 09:00:00,
2013-02-02 02:00:00,34.0,4.0,-100.00,North,9,1.0,7.0,28,-99.99,,,-99.99,,2013-02-02 10:00:00,
2013-02-02 03:00:00,34.0,4.0,-100.00,WSW,240,1.0,5.0,27,-99.99,,,-99.99,,2013-02-02 11:00:00,
2013-02-02 04:00:00,33.0,2.0,-100.00,SW,219,1.0,7.0,26,-99.99,,,-99.99,,2013-02-02 12:00:00,
2013-02-02 05:00:00,33.0,3.0,-100.00,SSE,168,1.0,8.0,27,-99.99,,,-99.99,,2013-02-02 13:00:00,
2013-02-02 06:00:00,34.0,0.0,-100.00,WNW,296,2.0,10.0,23,-99.99,,,-99.99,,2013-02-02 14:00:00,
2013-02-02 07:00:00,36.0,-7.0,-100.00,West,280,3.0,12.0,15,-99.99,,,-99.99,,2013-02-02 15:00:00,
2013-02-02 08:00:00,35.0,-3.0,-100.00,SW,226,1.0,8.0,19,-99.99,,,-99.99,,2013-02-02 16:00:00,
2013-02-02 08:52:00,35.0,-3.0,-100.00,SW,226,1.0,8.0,19,-99.99,,,-99.99,,2013-02-02 16:52:00,
2013-02-02 09:00:00,36.0,-6.0,-100.00,North,0,0.0,5.0,16,-99.99,,,-99.99,,2013-02-02 17:00:00,
2013-02-02 09:52:00,36.0,-6.0,-100.00,North,0,0.0,5.0,16,-99.99,,,-99.99,,2013-02-02 17:52:00,
2013-02-02 10:00:00,37.0,-3.0,-100.00,North,-999,0.0,0.0,18,-99.99,,,-99.99,,2013-02-02 18:00:00,
2013-02-02 11:00:00,39.0,16.0,-100.00,North,0,0.0,5.0,38,-99.99,,,-99.99,,2013-02-02 19:00:00,
2013-02-02 11:52:00,39.0,16.0,-100.00,North,0,0.0,5.0,38,-99.99,,,-99.99,,2013-02-02 19:52:00,
2013-02-02 12:00:00,38.0,19.0,-100.00,North,0,0.0,3.0,45,-99.99,,,-99.99,,2013-02-02 20:00:00,
2013-02-02 13:00:00,39.0,12.0,-100.00,WSW,253,3.0,10.0,33,-99.99,,,-99.99,,2013-02-02 21:00:00,
2013-02-02 14:00:00,41.0,12.0,-100.00,SW,218,5.0,10.0,30,-99.99,,,-99.99,,2013-02-02 22:00:00,
2013-02-02 14:52:00,41.0,12.0,-100.00,SW,218,5.0,10.0,30,-99.99,,,-99.99,,2013-02-02 22:52:00,
2013-02-02 15:00:00,39.0,12.0,-100.00,WSW,247,3.0,10.0,33,-99.99,,,-99.99,,2013-02-02 23:00:00,
2013-02-02 16:00:00,39.0,12.0,-100.00,West,263,6.0,12.0,33,-99.99,,,-99.99,,2013-02-03 00:00:00,
2013-02-02 17:00:00,39.0,8.0,-100.00,WSW,245,7.0,13.0,27,-99.99,,,-99.99,,2013-02-03 01:00:00,
2013-02-02 18:00:00,37.0,11.0,-100.00,West,259,13.0,20.0,34,-99.99,,,-99.99,,2013-02-03 02:00:00,
2013-02-02 19:00:00,37.0,9.0,-100.00,SW,233,13.0,18.0,31,-99.99,,,-99.99,,2013-02-03 03:00:00,
2013-02-02 20:00:00,39.0,2.0,-100.00,WSW,256,12.0,18.0,21,-99.99,,,-99.99,,2013-02-03 04:00:00,
2013-02-02 21:00:00,38.0,3.0,-100.00,West,266,12.0,18.0,22,-99.99,,,-99.99,,2013-02-03 05:00:00,
2013-02-02 22:00:00,39.0,3.0,-100.00,WSW,246,13.0,21.0,22,-99.99,,,-99.99,,2013-02-03 06:00:00,
2013-02-02 23:00:00,39.0,2.0,-100.00,West,269,16.0,22.0,21,-99.99,,,-99.99,,2013-02-03 07:00:00,